Location: Koslow
(50.3020°N, 18.5663°E)
Time: 23:18:21
(UTC+00:00)

STARLINK-1357 - Visible Passes

Search period start: 01 October 2020 00:00
Search period end: 11 October 2020 00:00
Orbit: 549 x 550 km, 53.0° (Epoch: 01 October)

Date Brightness Start Highest point End Pass type
(mag) Time Alt. Az. Time Alt. Az. Time Alt. Az.
01 Oct 6.3 01:09:58 16° E 01:09:58 16° E 01:10:54 10° ENE visible
01 Oct 3.6 02:45:37 54° W 02:46:28 76° NNW 02:50:38 10° ENE visible
02 Oct 6.5 01:04:44 14° ENE 01:04:44 14° ENE 01:05:27 10° ENE visible
02 Oct 3.6 02:40:23 58° WNW 02:41:00 69° NNW 02:45:08 10° ENE visible
02 Oct 4.0 04:16:45 10° WNW 04:20:52 62° N 04:24:59 10° E visible
03 Oct 6.6 00:59:30 13° ENE 00:59:30 13° ENE 00:59:59 10° ENE visible
03 Oct 3.7 02:35:09 60° NW 02:35:32 64° N 02:39:39 10° ENE visible
03 Oct 3.9 04:11:17 10° WNW 04:15:25 66° N 04:19:34 10° E visible
04 Oct 6.8 00:54:17 12° ENE 00:54:17 12° ENE 00:54:33 10° ENE visible
04 Oct 3.8 02:29:56 59° NNW 02:30:06 60° N 02:34:14 10° ENE visible
04 Oct 3.8 04:05:50 10° WNW 04:09:59 73° NNE 04:14:08 10° E visible
05 Oct 3.9 02:24:46 58° N 02:24:46 58° N 02:28:49 10° ENE visible
05 Oct 3.7 04:00:25 10° WNW 04:04:33 81° NNE 04:08:43 10° ESE visible
06 Oct 4.1 02:19:38 56° NNE 02:19:38 56° NNE 02:23:26 10° E visible
06 Oct 3.6 03:55:17 12° WNW 03:59:08 88° SSW 04:03:17 10° ESE visible
07 Oct 4.3 02:14:34 52° NE 02:14:34 52° NE 02:18:04 10° E visible
07 Oct 3.6 03:50:13 14° WNW 03:53:42 76° SSW 03:57:51 10° ESE visible
08 Oct 4.6 02:09:34 46° ENE 02:09:34 46° ENE 02:12:44 10° E visible
08 Oct 3.7 03:45:13 17° WNW 03:48:17 64° SSW 03:52:23 10° SE visible
09 Oct 4.9 02:04:39 39° ENE 02:04:39 39° ENE 02:07:24 10° E visible
09 Oct 3.9 03:40:19 21° W 03:42:52 52° SSW 03:46:54 10° SE visible
10 Oct 5.3 01:59:50 31° E 01:59:50 31° E 02:02:06 10° E visible
10 Oct 4.1 03:35:31 25° W 03:37:27 42° SW 03:41:21 10° SE visible
